Weather History for Valladolid Airport, Spain

Change the Weather History Date:

Tuesday, November 26, 2013

  Actual Average Record
Temperature  
Mean Temperature 37 °F -  
Max Temperature 41 °F - - ()
Min Temperature 33 °F - - ()
Degree Days  
Heating Degree Days 28    
Moisture  
Dew Point 29 °F    
Average Humidity 73    
Maximum Humidity 81    
Minimum Humidity 61    
Precipitation  
Precipitation 0.00 in - - ()
Sea Level Pressure  
Sea Level Pressure 30.30 in    
Wind  
Wind Speed 23 mph ()    
Max Wind Speed 31 mph    
Max Gust Speed 45 mph    
Visibility 6.2 miles    
Events      
T = Trace of Precipitation, MM = Missing Value Source: Averaged Metar Reports

Daily Weather History Graph

Daily Weather History Graph

Search for Another Location

Airport:

Trip Planner

Search our weather history database for the weather conditions in past years. The results will help you decide how hot, cold, wet, or windy it might be!

Date:

Astronomy

Nov. 26, 2013 Rise Set
Actual Time 8:21 AM CET 5:51 PM CET
Civil Twilight 7:50 AM CET 6:22 PM CET
Nautical Twilight 7:16 AM CET 6:56 PM CET
Astronomical Twilight 6:43 AM CET 7:29 PM CET
Moon 1:06 AM CET 1:56 PM CET
Length of Visible Light 10h 31m
Length of Day
9h 30m
Last Quarter, 44% of the Moon is Illuminated
Nov 26
Last Quarter
Dec 3
New
Dec 9
First Quarter
Dec 17
Full
Dec 25
Last Quarter

Hourly Weather History & Observations

Time (CET) Temp. Windchill Dew Point Humidity Pressure Visibility Wind Dir Wind Speed Gust Speed Precip Events Conditions
7:00 AM 35.6 °F 24.0 °F 30.2 °F 81% 30.30 in 6.2 mi NE 23.0 mph - N/A   Mostly Cloudy
7:30 AM 35.6 °F 23.2 °F 30.2 °F 81% 30.30 in 6.2 mi NE 26.5 mph 40.3 mph N/A   Mostly Cloudy
8:00 AM 35.6 °F 22.3 °F 30.2 °F 81% 30.27 in 6.2 mi NE 31.1 mph 44.9 mph N/A   Mostly Cloudy
8:30 AM 35.6 °F 23.7 °F 28.4 °F 75% 30.30 in 6.2 mi NE 24.2 mph 36.8 mph N/A   Mostly Cloudy
9:00 AM 35.6 °F 22.7 °F 28.4 °F 75% 30.30 in 6.2 mi NE 28.8 mph 41.4 mph N/A   Mostly Cloudy
9:30 AM 35.6 °F 23.2 °F 28.4 °F 75% 30.30 in 6.2 mi NE 26.5 mph - N/A   Mostly Cloudy
10:00 AM 35.6 °F 23.4 °F 28.4 °F 75% 30.33 in 6.2 mi NE 25.3 mph - N/A   Mostly Cloudy
10:30 AM 35.6 °F 23.2 °F 28.4 °F 75% 30.33 in 6.2 mi ENE 26.5 mph - N/A   Scattered Clouds
11:00 AM 37.4 °F 25.4 °F 30.2 °F 75% 30.33 in 6.2 mi ENE 27.6 mph - N/A   Scattered Clouds
11:30 AM 39.2 °F 28.3 °F 30.2 °F 70% 30.33 in 6.2 mi NE 25.3 mph - N/A   Scattered Clouds
12:00 PM 39.2 °F 28.0 °F 30.2 °F 70% 30.33 in 6.2 mi NE 26.5 mph - N/A   Scattered Clouds
12:30 PM 39.2 °F 28.5 °F 30.2 °F 70% 30.33 in 6.2 mi ENE 24.2 mph - N/A   Scattered Clouds
1:00 PM 39.2 °F 28.7 °F 28.4 °F 65% 30.33 in 6.2 mi NE 23.0 mph - N/A   Scattered Clouds
1:30 PM 41.0 °F 31.1 °F 28.4 °F 61% 30.30 in 6.2 mi NE 23.0 mph - N/A   Partly Cloudy
2:00 PM 41.0 °F 31.4 °F 28.4 °F 61% 30.30 in 6.2 mi NE 21.9 mph - N/A   Partly Cloudy
2:30 PM 41.0 °F 31.4 °F 28.4 °F 61% 30.30 in 6.2 mi ENE 21.9 mph 33.4 mph N/A   Partly Cloudy
3:00 PM 39.2 °F 28.5 °F 28.4 °F 65% 30.30 in 6.2 mi NE 24.2 mph - N/A   Partly Cloudy
3:30 PM 39.2 °F 28.5 °F 28.4 °F 65% 30.30 in 6.2 mi ENE 24.2 mph - N/A   Partly Cloudy
4:00 PM 39.2 °F 28.0 °F 28.4 °F 65% 30.30 in 6.2 mi ENE 26.5 mph - N/A   Scattered Clouds
4:30 PM 39.2 °F 27.8 °F 28.4 °F 65% 30.30 in 6.2 mi NE 27.6 mph 41.4 mph N/A   Scattered Clouds
5:00 PM 37.4 °F 25.0 °F 28.4 °F 70% 30.27 in 6.2 mi NE 29.9 mph - N/A   Scattered Clouds
5:30 PM 37.4 °F 25.4 °F 28.4 °F 70% 30.27 in 6.2 mi NE 27.6 mph - N/A   Partly Cloudy
6:00 PM 35.6 °F 23.4 °F 28.4 °F 75% 30.27 in 6.2 mi NE 25.3 mph - N/A   Partly Cloudy
6:30 PM 33.8 °F 21.9 °F 28.4 °F 81% 30.30 in 6.2 mi ENE 21.9 mph 33.4 mph N/A   Partly Cloudy
7:00 PM 33.8 °F 21.6 °F 28.4 °F 81% 30.30 in 6.2 mi NE 23.0 mph - N/A   Partly Cloudy
7:30 PM 33.8 °F 22.8 °F 28.4 °F 81% 30.30 in 6.2 mi ENE 18.4 mph - N/A   Partly Cloudy
8:00 PM 33.8 °F 21.3 °F 28.4 °F 81% 30.30 in - NE 24.2 mph - N/A   Clear
8:30 PM 33.8 °F 20.8 °F 28.4 °F 81% 30.30 in - NE 26.5 mph - N/A   Clear
9:00 PM 33.8 °F 21.9 °F 28.4 °F 81% 30.30 in - NE 21.9 mph - N/A   Clear
9:30 PM 33.8 °F 21.0 °F 28.4 °F 81% 30.27 in - NE 25.3 mph - N/A   Clear